AirNav   Everest Fuels
 
 411 users online  

1MS3 Baptist Medical Center Attala Heliport
Kosciusko, Mississippi, USA

GOING TO KOSCIUSKO?


FAA INFORMATION EFFECTIVE 10 SEPTEMBER 2020

Location

FAA Identifier: 1MS3
Lat/Long: 33-04-00.4500N 089-35-54.5900W
33-04.007500N 089-35.909833W
33.0667917,-89.5984972
(estimated)
Elevation: 455 ft. / 139 m (estimated)
Variation: 02E (1985)
Time zone: UTC -5 (UTC -6 during Standard Time)
Zip code: 39090

Heliport Operations

Heliport use: Private use, MEDICAL.
Activation date: 05/1987
Control tower: no
ARTCC: MEMPHIS CENTER
FSS: GREENWOOD FLIGHT SERVICE STATION
Attendance: UNATNDD
Segmented circle: no

Heliport Services

Runway Information

Helipad H1

Dimensions: 35 x 35 ft. / 11 x 11 m
Surface: concrete
Latitude: 33-04.007500N
Longitude: 089-35.909833W
Elevation: 455.0 ft.
Traffic pattern: leftleft

Heliport Ownership and Management from official FAA records

Ownership: Privately-owned
Owner: BAPTIST MEDICAL CENTER ATTALA
HIGHWAY 12 WEST
KOSCIUSKO, MS 39090
Phone 601-289-4311
Manager: JOHN DAWSON
HIGHWAY 12 WEST
KOSCIUSKO, MS 39090
Phone 601-289-4311

Additional Remarks

FOR CD CTC MEMPHIS ARTCC AT 901-368-8453.

Instrument Procedures

There are no published instrument procedures at 1MS3.

Some nearby airports with instrument procedures:

KOSX - Kosciusko-Attala County Airport (3 nm NE)
19M - C A Moore Airport (22 nm W)
5A6 - Winona-Montgomery County Airport (25 nm N)
KLMS - Louisville Winston County Airport (27 nm E)
KMPE - Philadelphia Municipal Airport (29 nm SE)
 
Loc | Ops | Rwys | IFR | FBO | Links
Com | Nav | Svcs | Stats | Notes
Area around 1MS3 (Baptist Medical Center Attala Heliport)
 
Road maps at: MapQuest Bing Google
 
Aerial photo
No photo
 
Sectional chart

 
Airport distance calculator
Flying to Baptist Medical Center Attala Heliport? Find the distance to fly.

From to 1MS3

Sunrise and sunset
Times for 30-Sep-2020
 Local
(UTC-5)
 Zulu
(UTC)
Morning civil twilight06:2911:29
Sunrise06:5411:54
Sunset18:4323:43
Evening civil twilight19:0700:07

Current date and time
Zulu (UTC)  30-Sep-2020 08:26:35
Local (UTC-5)  30-Sep-2020 03:26:35
 
METAR
K5A6 
25nm N 
300815Z AUTO 00000KT 10SM CLR 10/09 A3003 RMK AO2 T00950093
KGWO 
36nm NW 
300753Z AUTO 00000KT 10SM CLR 11/10 A3004 RMK AO2 SLP170 T01060100
KNJW 
42nm E 
300757Z AUTO 00000KT 10SM CLR 10/09 A3001 RMK AO2 SLP966 T01000089 TSNO $
KSTF 
44nm NE 
300815Z AUTO 00000KT 2 1/2SM BR CLR 08/08 A3005 RMK AO2 VIS 3/4V5
KMBO 
45nm SW 
300815Z AUTO 00000KT 10SM CLR 09/09 A3006 RMK AO2
TAF
KGWO 
36nm NW 
300520Z 3006/0106 22004KT P6SM SKC FM301500 23008G16KT P6SM SKC FM010000 21004KT P6SM SKC
NOTAMs
Click for the latest NOTAMs
NOTAMs are issued by the DoD/FAA and will open in a separate window not controlled by AirNav.

 

 
 

Would you like to see your business listed on this page?

 If your business provides an interesting product or service to pilots, flight crews, aircraft, or users of the Baptist Medical Center Attala Heliport, you should consider listing it here.  To start the listing process, click on the button below
 
Add a business
 

Other Pages about Baptist Medical Center Attala Heliport

Update a link
 
Copyright © AirNav, LLC. All rights reserved. Privacy Policy  Contact